GW7003 Weather Reports


Display with metric or nautical units.
time (UTC)temp
F
wind
direction
speed
MPH
gust
MPH
rain 1hr
in
rain 24hr
in
rain mn
in
humidity
%
barometer
mb
20260507031049 45 144 0.0 0.0 0.00 0.02 0.02 96 1016.6
20260507030546 45 144 0.0 0.0 0.00 0.02 0.02 96 1016.4
20260507030044 46 144 0.0 0.0 0.00 0.02 0.02 96 1016.3
20260507025541 46 144 0.0 0.0 0.00 0.02 0.02 96 1016.4
20260507025038 46 144 0.0 0.0 0.00 0.02 0.02 96 1016.2
20260507024536 46 145 0.0 0.0 0.00 0.02 0.02 95 1016.3
20260507024032 46 145 0.0 0.0 0.00 0.02 0.02 95 1016.0
20260507023528 46 144 0.0 0.0 0.00 0.02 0.02 95 1016.1
20260507023026 47 144 0.0 0.0 0.00 0.02 0.02 95 1016.2
20260507022522 47 145 0.0 0.0 0.00 0.02 0.02 95 1016.1
20260507022018 47 145 0.0 0.0 0.00 0.02 0.02 95 1016.0
20260507021514 47 145 1.0 1.0 0.00 0.02 0.02 94 1016.0
20260507021011 47 145 0.0 1.0 0.00 0.02 0.02 94 1016.1
20260507020508 47 145 0.0 0.0 0.00 0.02 0.02 94 1015.9
20260507020004 48 145 0.0 0.0 0.00 0.02 0.02 93 1015.9
20260507015503 48 145 0.0 0.0 0.00 0.02 0.02 93 1015.9
20260507015000 48 145 0.0 0.0 0.00 0.02 0.02 92 1015.8
20260507014456 49 145 0.0 0.0 0.00 0.02 0.02 91 1015.8
20260507013952 49 145 0.0 0.0 0.00 0.02 0.02 90 1015.7
20260507013449 50 145 0.0 0.0 0.00 0.02 0.02 90 1015.8
20260507012947 50 145 0.0 0.0 0.00 0.02 0.02 88 1015.8
20260507012443 51 145 0.0 0.0 0.00 0.02 0.02 87 1015.6
20260507011940 51 145 0.0 0.0 0.00 0.02 0.02 86 1015.6
20260507011437 52 145 0.0 0.0 0.00 0.02 0.02 84 1015.7
20260507010937 53 145 0.0 0.0 0.00 0.02 0.02 81 1015.6
20260507010433 53 145 0.0 0.0 0.00 0.02 0.02 80 1015.3
20260507005930 54 145 0.0 0.0 0.00 0.02 0.02 78 1015.6
20260507005427 54 144 0.0 0.0 0.00 0.02 0.02 78 1015.5
20260507004923 55 144 0.0 0.0 0.00 0.02 0.02 76 1015.5
20260507004420 56 162 0.0 0.0 0.00 0.02 0.02 74 1015.5
20260507003918 57 162 0.0 0.0 0.00 0.02 0.02 70 1015.6
20260507003412 57 162 0.0 0.0 0.00 0.02 0.02 68 1015.5
20260507002908 58 164 0.0 0.0 0.00 0.02 0.02 64 1015.6
20260507002404 58 114 0.0 1.0 0.00 0.02 0.02 61 1015.4
20260507001902 59 97 2.0 4.0 0.00 0.02 0.02 60 1015.4
20260507001358 59 169 1.0 2.0 0.00 0.02 0.02 59 1015.3
20260507000856 59 75 1.0 2.0 0.00 0.02 0.02 58 1015.2
20260507000350 60 104 1.0 2.0 0.00 0.02 0.02 59 1015.5
20260506235847 59 11 3.0 3.0 0.00 0.02 0.02 59 1015.2
20260506235344 59 116 0.0 2.0 0.00 0.02 0.02 61 1015.4
20260506234840 59 174 0.0 1.0 0.00 0.02 0.02 59 1015.4
20260506234338 59 100 1.0 1.0 0.00 0.02 0.02 61 1015.3
20260506233836 57 100 0.0 1.0 0.00 0.02 0.02 61 1015.4
20260506233331 57 57 1.0 6.0 0.00 0.02 0.02 61 1015.2
20260506232828 58 359 1.0 3.0 0.00 0.02 0.02 61 1015.3
20260506232324 58 78 3.0 4.0 0.00 0.02 0.02 60 1015.3
20260506231820 58 113 3.0 3.0 0.00 0.02 0.02 60 1015.0
20260506231319 58 33 2.0 2.0 0.00 0.02 0.02 59 1015.1
20260506230816 58 89 1.0 3.0 0.00 0.02 0.02 60 1015.1
20260506230312 58 127 3.0 6.0 0.00 0.02 0.02 59 1014.8
20260506225808 58 161 1.0 4.0 0.00 0.02 0.02 59 1014.7
20260506225306 59 20 2.0 3.0 0.00 0.02 0.02 57 1014.9
20260506224803 59 113 1.0 4.0 0.00 0.02 0.02 58 1014.9
20260506224300 59 36 4.0 6.0 0.00 0.02 0.02 57 1014.3
20260506223756 59 92 5.0 10.0 0.00 0.02 0.02 58 1014.2
20260506223251 58 336 2.0 3.0 0.00 0.02 0.02 59 1014.1
20260506222748 58 30 3.0 7.0 0.00 0.02 0.02 57 1013.8
20260506222244 58 29 3.0 6.0 0.00 0.02 0.02 58 1014.1
20260506221742 58 29 4.0 9.0 0.00 0.02 0.02 56 1013.6
20260506221240 58 69 3.0 9.0 0.00 0.02 0.02 56 1013.8
20260506220737 58 31 4.0 9.0 0.00 0.02 0.02 57 1013.5
20260506220232 58 38 6.0 10.0 0.00 0.02 0.02 57 1013.5
20260506215729 59 177 2.0 6.0 0.00 0.02 0.02 56 1013.8
20260506215224 57 94 2.0 6.0 0.00 0.02 0.02 58 1014.1
20260506214721 57 70 3.0 9.0 0.00 0.02 0.02 59 1014.0
20260506214218 57 31 2.0 6.0 0.00 0.02 0.02 59 1014.0
20260506213716 57 59 2.0 7.0 0.00 0.02 0.02 59 1013.9
20260506213214 57 19 5.0 6.0 0.00 0.02 0.02 59 1014.0
20260506212711 57 76 2.0 4.0 0.00 0.02 0.02 60 1014.3
20260506212206 58 27 3.0 8.0 0.00 0.02 0.02 60 1014.1
20260506211702 58 342 7.0 9.0 0.00 0.02 0.02 57 1014.3
20260506211158 58 10 3.0 7.0 0.00 0.02 0.02 56 1014.0
20260506210655 58 49 5.0 9.0 0.00 0.02 0.02 55 1014.2
20260506210152 59 83 1.0 4.0 0.00 0.02 0.02 54 1014.3
20260506205650 58 25 3.0 6.0 0.00 0.02 0.02 59 1014.1
20260506205150 58 118 2.0 6.0 0.00 0.02 0.02 55 1014.4
20260506204648 58 138 2.0 4.0 0.00 0.02 0.02 56 1014.7
20260506204144 59 107 3.0 4.0 0.00 0.02 0.02 57 1014.5
20260506203643 59 103 4.0 9.0 0.00 0.02 0.02 55 1014.7
20260506203139 59 338 5.0 9.0 0.00 0.02 0.02 56 1015.0
20260506202638 59 30 3.0 6.0 0.00 0.02 0.02 56 1015.0
20260506202133 59 193 1.0 8.0 0.00 0.02 0.02 52 1015.0
20260506201630 60 112 6.0 8.0 0.00 0.02 0.02 52 1015.3
20260506201127 59 21 3.0 7.0 0.00 0.02 0.02 54 1015.4
20260506200623 60 67 3.0 7.0 0.00 0.02 0.02 53 1015.5
20260506200120 60 106 2.0 4.0 0.00 0.02 0.02 57 1015.5
20260506195617 59 62 3.0 6.0 0.00 0.02 0.02 60 1015.5
20260506195113 57 107 2.0 2.0 0.00 0.02 0.02 64 1015.7
20260506194611 57 181 4.0 7.0 0.00 0.02 0.02 59 1015.9
20260506194107 58 131 4.0 8.0 0.00 0.02 0.02 60 1016.0
20260506193605 58 159 1.0 4.0 0.00 0.02 0.02 58 1015.9
20260506193102 59 74 2.0 4.0 0.00 0.02 0.02 56 1015.5
20260506192559 57 77 1.0 4.0 0.00 0.02 0.02 63 1015.8
20260506192054 57 183 1.0 7.0 0.00 0.02 0.02 62 1015.8
20260506191551 57 189 3.0 7.0 0.00 0.02 0.02 60 1016.0
20260506191047 56 0 2.0 4.0 0.00 0.02 0.02 65 1016.0
20260506190545 55 132 6.0 8.0 0.00 0.02 0.02 65 1016.1
20260506190042 55 124 4.0 4.0 0.00 0.02 0.02 65 1016.3
20260506185539 55 112 2.0 2.0 0.00 0.02 0.02 64 1016.3
20260506185035 55 31 3.0 8.0 0.00 0.02 0.02 65 1016.0
20260506184532 56 48 1.0 4.0 0.00 0.02 0.02 64 1016.1
20260506184030 56 9 5.0 7.0 0.00 0.02 0.02 64 1016.2
20260506183525 55 152 0.0 2.0 0.00 0.02 0.02 67 1015.9
20260506183023 55 12 6.0 10.0 0.00 0.02 0.02 64 1016.1
20260506182520 55 10 3.0 7.0 0.00 0.02 0.02 67 1016.0
20260506182017 55 124 4.0 6.0 0.00 0.02 0.02 65 1016.0
20260506181515 56 48 1.0 4.0 0.00 0.02 0.02 64 1015.8
20260506181011 56 3 4.0 9.0 0.00 0.02 0.02 63 1015.8
20260506180508 55 34 6.0 9.0 0.00 0.02 0.02 63 1016.0
20260506180005 55 39 3.0 7.0 0.00 0.02 0.02 65 1016.2
20260506175501 55 92 2.0 4.0 0.00 0.02 0.02 65 1016.2
20260506174957 54 71 3.0 6.0 0.00 0.02 0.02 66 1016.4
20260506174456 54 25 6.0 9.0 0.00 0.02 0.02 67 1016.8
20260506173952 54 12 6.0 9.0 0.00 0.02 0.02 65 1016.6
20260506173450 54 30 4.0 6.0 0.00 0.02 0.02 68 1016.6
20260506172946 54 93 1.0 2.0 0.00 0.02 0.02 68 1016.8
20260506172444 53 102 2.0 6.0 0.00 0.02 0.02 67 1016.9
20260506171940 53 104 2.0 3.0 0.00 0.02 0.02 69 1017.2
20260506171437 53 139 3.0 4.0 0.00 0.02 0.02 67 1017.0
20260506170935 53 95 2.0 2.0 0.00 0.02 0.02 69 1016.7
20260506170431 53 32 4.0 9.0 0.00 0.02 0.02 67 1016.7
20260506165930 53 58 2.0 6.0 0.00 0.02 0.02 67 1016.7
20260506165428 53 83 2.0 3.0 0.00 0.02 0.02 69 1016.3
20260506164924 53 165 4.0 9.0 0.00 0.02 0.02 69 1016.4
20260506164421 53 184 6.0 8.0 0.00 0.02 0.02 70 1016.2
20260506163919 54 86 4.0 9.0 0.00 0.02 0.02 66 1016.4
20260506163414 54 159 2.0 7.0 0.00 0.02 0.02 68 1016.4
20260506162909 53 143 1.0 6.0 0.00 0.02 0.02 68 1016.7
20260506162407 53 98 3.0 7.0 0.00 0.02 0.02 72 1016.4
20260506161904 52 85 4.0 8.0 0.00 0.02 0.02 71 1016.2
20260506161401 52 154 1.0 2.0 0.00 0.02 0.02 72 1016.2
20260506160859 51 87 4.0 7.0 0.00 0.02 0.02 72 1016.1
20260506160356 52 184 2.0 9.0 0.00 0.02 0.02 72 1015.9
20260506155854 52 85 4.0 7.0 0.00 0.02 0.02 72 1015.3
20260506155351 51 83 4.0 7.0 0.00 0.02 0.02 74 1015.6
20260506153508 51 35 6.0 9.0 0.00 0.02 0.02 73 1016.1
20260506153005 51 99 3.0 6.0 0.00 0.02 0.02 74 1015.9
20260506152501 51 55 6.0 9.0 0.00 0.02 0.02 74 1015.9
20260506152000 51 26 3.0 4.0 0.00 0.02 0.02 75 1016.1
20260506151457 51 95 5.0 6.0 0.00 0.02 0.02 73 1016.0
20260506150955 51 141 3.0 10.0 0.00 0.02 0.02 74 1016.1
20260506150450 51 29 2.0 3.0 0.00 0.02 0.02 72 1016.0
20260506145948 51 173 6.0 7.0 0.00 0.02 0.02 76 1015.9
20260506145443 51 132 3.0 6.0 0.00 0.02 0.02 76 1016.3
20260506144942 50 106 3.0 9.0 0.00 0.02 0.02 74 1015.9
20260506144438 49 43 4.0 8.0 0.00 0.02 0.02 77 1015.7
20260506143937 49 150 3.0 6.0 0.00 0.02 0.02 78 1016.2
20260506143433 49 85 5.0 7.0 0.00 0.02 0.02 78 1015.6
20260506142932 49 73 4.0 9.0 0.00 0.02 0.02 77 1015.7
20260506142429 49 121 2.0 3.0 0.00 0.02 0.02 78 1015.6
20260506141927 50 40 7.0 10.0 0.00 0.02 0.02 78 1015.6
20260506141425 50 64 2.0 4.0 0.00 0.02 0.02 78 1015.2
20260506140923 49 131 2.0 7.0 0.00 0.02 0.02 80 1015.4
20260506140419 49 98 3.0 6.0 0.00 0.02 0.02 80 1015.5
20260506135916 48 71 4.0 8.0 0.00 0.02 0.02 79 1015.8
20260506135414 48 0 2.0 4.0 0.00 0.02 0.02 79 1015.8
20260506134909 48 75 2.0 7.0 0.00 0.02 0.02 80 1015.9
20260506134406 48 100 1.0 1.0 0.00 0.02 0.02 81 1015.9
20260506133903 48 120 3.0 6.0 0.00 0.02 0.02 80 1015.8
20260506133359 48 13 2.0 9.0 0.00 0.02 0.02 82 1015.6
20260506132856 48 98 3.0 4.0 0.00 0.02 0.02 81 1015.9
20260506132353 48 147 2.0 3.0 0.00 0.02 0.02 81 1015.9
20260506131852 47 189 2.0 8.0 0.00 0.02 0.02 83 1015.7
20260506131347 47 22 3.0 3.0 0.00 0.02 0.02 84 1015.7
20260506130845 47 87 4.0 8.0 0.00 0.02 0.02 84 1015.7
20260506130341 46 45 1.0 7.0 0.00 0.02 0.02 85 1015.9
20260506125839 46 121 3.0 6.0 0.00 0.02 0.02 86 1015.4
20260506125337 46 50 3.0 6.0 0.00 0.02 0.02 86 1015.7
20260506124835 46 22 6.0 7.0 0.00 0.02 0.02 86 1015.5
20260506124332 46 35 2.0 3.0 0.00 0.02 0.02 86 1015.5
20260506123829 46 82 4.0 8.0 0.00 0.02 0.02 86 1015.0
20260506123328 46 134 3.0 3.0 0.00 0.02 0.02 86 1015.0
20260506122825 46 104 0.0 4.0 0.00 0.02 0.02 86 1015.2
20260506122321 46 133 2.0 6.0 0.00 0.02 0.02 86 1015.1
20260506121820 46 56 2.0 4.0 0.00 0.02 0.02 86 1015.2
20260506121316 46 100 1.0 3.0 0.00 0.02 0.02 86 1014.9
20260506120814 46 61 2.0 3.0 0.00 0.02 0.02 87 1015.1
20260506120311 46 21 4.0 6.0 0.00 0.02 0.02 86 1014.9
20260506115809 46 51 4.0 6.0 0.00 0.02 0.02 86 1014.7
20260506115307 45 108 0.0 2.0 0.00 0.02 0.02 85 1014.9
20260506114804 45 110 1.0 3.0 0.00 0.02 0.02 87 1014.3
20260506114302 45 117 1.0 3.0 0.00 0.02 0.02 86 1014.3
20260506113800 45 142 1.0 2.0 0.00 0.02 0.02 89 1014.0
20260506113257 45 78 1.0 1.0 0.00 0.02 0.02 86 1013.9
20260506112754 45 99 3.0 4.0 0.00 0.02 0.02 86 1013.9
20260506112251 45 109 2.0 3.0 0.00 0.02 0.02 86 1014.0
20260506111748 45 124 0.0 1.0 0.00 0.02 0.02 87 1013.9
20260506111247 45 96 1.0 4.0 0.00 0.02 0.02 86 1014.0
20260506110743 45 117 3.0 6.0 0.00 0.02 0.02 86 1013.8
20260506110241 45 119 0.0 2.0 0.00 0.02 0.02 86 1013.5
20260506105737 45 97 0.0 3.0 0.00 0.02 0.02 86 1013.3
20260506105234 46 135 0.0 1.0 0.00 0.02 0.02 86 1013.3
20260506104732 45 141 1.0 1.0 0.00 0.02 0.02 86 1013.2
20260506104229 45 152 0.0 1.0 0.00 0.02 0.02 87 1013.0
20260506103726 45 156 3.0 3.0 0.00 0.02 0.02 86 1012.7
20260506103224 45 150 1.0 2.0 0.00 0.02 0.02 86 1012.7
20260506102721 45 133 3.0 4.0 0.00 0.02 0.02 86 1012.6
20260506102220 45 118 1.0 1.0 0.00 0.02 0.02 87 1012.8
20260506101716 45 129 1.0 4.0 0.00 0.02 0.02 85 1012.3
20260506101212 45 110 2.0 3.0 0.00 0.02 0.02 86 1012.5
20260506100711 45 112 3.0 4.0 0.00 0.02 0.02 87 1012.5
20260506100208 45 137 0.0 1.0 0.00 0.02 0.02 87 1012.4
20260506095707 45 123 2.0 2.0 0.00 0.02 0.02 87 1012.0
20260506095203 45 86 2.0 6.0 0.00 0.02 0.02 88 1011.6
20260506094700 45 103 3.0 6.0 0.00 0.02 0.02 89 1011.7
20260506094158 45 172 3.0 3.0 0.00 0.02 0.02 88 1012.0
20260506093657 45 122 2.0 4.0 0.00 0.02 0.02 88 1012.0
20260506093153 45 125 2.0 4.0 0.00 0.02 0.02 88 1012.0
20260506092651 45 123 5.0 6.0 0.00 0.02 0.02 89 1012.0
20260506092148 45 103 3.0 4.0 0.00 0.02 0.02 89 1012.3
20260506091646 46 103 5.0 7.0 0.00 0.02 0.02 88 1012.2
20260506091143 46 141 3.0 8.0 0.00 0.02 0.02 87 1012.2
20260506090641 46 61 2.0 3.0 0.00 0.02 0.02 89 1012.0
20260506090137 46 149 4.0 4.0 0.00 0.02 0.02 90 1011.8
20260506085634 46 130 0.0 3.0 0.00 0.02 0.02 89 1011.9
20260506085130 46 15 2.0 4.0 0.00 0.02 0.02 90 1011.8
20260506084627 46 131 1.0 4.0 0.00 0.02 0.02 91 1011.6
20260506084124 46 127 3.0 3.0 0.00 0.02 0.02 92 1011.3
20260506083621 46 109 2.0 4.0 0.00 0.02 0.02 91 1011.4
20260506083119 46 68 3.0 9.0 0.00 0.02 0.02 91 1011.4
20260506082615 46 116 4.0 7.0 0.00 0.02 0.02 92 1011.2
20260506082111 46 110 1.0 4.0 0.00 0.02 0.02 92 1011.4
20260506081609 46 117 2.0 7.0 0.00 0.02 0.02 92 1011.2
20260506081106 46 141 3.0 4.0 0.07 0.02 0.02 93 1011.2
20260506080604 46 125 2.0 2.0 0.07 0.02 0.02 93 1011.4
20260506073044 46 187 2.0 4.0 0.00 0.01 0.01 92 1011.5
20260506072541 46 69 1.0 8.0 0.00 0.01 0.01 93 1011.3
20260506072039 46 29 3.0 7.0 0.00 0.01 0.01 94 1011.1
20260506071537 46 27 9.0 10.0 0.00 0.01 0.01 93 1011.5
20260506071033 46 55 1.0 4.0 0.00 0.01 0.01 93 1011.5
20260506070531 46 131 0.0 2.0 0.00 0.01 0.01 93 1011.1
20260506062508 46 201 1.0 2.0 0.00 0.00 0.00 94 1011.0
20260506062005 46 87 5.0 9.0 0.00 0.00 0.00 95 1011.4
20260506061501 46 106 4.0 8.0 0.00 0.00 0.00 95 1011.3
20260506060958 47 98 1.0 2.0 0.00 0.00 0.00 95 1011.3
20260506060457 47 73 1.0 1.0 0.00 0.00 0.00 95 1011.4
20260506050926 47 124 0.0 1.0 0.00 0.00 0.00 95 1010.7
20260506050423 47 121 4.0 4.0 0.00 0.00 0.00 94 1011.0
20260506044914 47 89 0.0 2.0 0.00 0.99 0.99 94 1011.2
20260506044412 47 94 2.0 4.0 0.00 0.99 0.99 94 1011.1
20260506043909 47 119 1.0 1.0 0.00 0.99 0.99 94 1011.0
20260506043406 47 61 4.0 4.0 0.00 0.99 0.99 94 1010.7
20260506042904 47 120 0.0 2.0 0.00 0.99 0.99 94 1010.7
20260506042403 47 67 2.0 8.0 0.00 0.99 0.99 94 1010.6
20260506041901 47 100 2.0 7.0 0.00 0.99 0.99 94 1010.4
20260506041357 47 63 3.0 6.0 0.00 0.99 0.99 94 1010.7
20260506040855 47 213 2.0 2.0 0.00 0.99 0.99 94 1010.6
20260506040352 47 116 0.0 2.0 0.00 0.99 0.99 94 1010.5
20260506035848 47 124 2.0 3.0 0.00 0.99 0.99 94 1010.3
20260506035345 47 46 2.0 2.0 0.00 0.99 0.99 94 1010.4
20260506034843 47 213 2.0 2.0 0.00 0.99 0.99 94 1010.4
20260506034340 47 96 1.0 3.0 0.00 0.99 0.99 94 1010.4
20260506033837 47 127 0.0 3.0 0.00 0.99 0.99 94 1010.4
20260506033334 48 103 4.0 7.0 0.00 0.99 0.99 94 1010.1
20260506032831 48 84 3.0 4.0 0.00 0.99 0.99 94 1010.0
20260506032327 48 91 2.0 7.0 0.00 0.99 0.99 94 1010.0
20260506031825 48 129 6.0 8.0 0.00 0.99 0.99 94 1009.9